Location: Newark
(48.1333°N, 17.1000°E)
Time: 02:37:23
(UTC+00:00)

N. Korean satellite - Pass Details

Date: 28 January 2020
Orbit: 456 x 505 km, 97.2° (Epoch: 26 February)

Event Time Altitude Azimuth Distance (km) Brightness Sun altitude
Rises 04:24:55 0° 17° (NNE) 2,544 10.4 -20.1°
Reaches altitude 10° 04:27:02 10° 24° (NNE) 1,668 9.5 -19.7°
Maximum altitude 04:30:30 47° 99° (E) 656 7.6 -19.1°
Drops below altitude 10° 04:34:00 10° 174° (S) 1,680 9.4 -18.5°
Sets 04:36:08 0° 181° (S) 2,565 10.3 -18.2°
